Provo, UT

6:58 PM MST on November 11, 2019 (GMT -0700)
Provo Municipal

Weather History for KPVU - August, 2019

Change the Weather History Date:

Thursday, August 22, 2019

  Actual Average Record
Temperature  
Mean Temperature 73 °F -  
Max Temperature 95 °F 85 °F 96 °F (2006)
Min Temperature 55 °F 55 °F 50 °F (1996)
Cooling Degree Days 8    
Growing Degree Days 23 (Base 50)    
Moisture  
Dew Point 42 °F    
Average Humidity 33    
Maximum Humidity 59    
Minimum Humidity 11    
Precipitation  
Precipitation 0.00 in - - ()
Sea Level Pressure  
Sea Level Pressure 29.71 in    
Wind  
Wind Speed 8 mph (SSE)    
Max Wind Speed 20 mph    
Max Gust Speed 25 mph    
Visibility 10 miles    
Events      
Averages and records for this station are not official NWS values.
T = Trace of Precipitation, MM = Missing Value Source: NWS Daily Summary

Daily Weather History Graph

Daily Weather History Graph

Search for Another Location

Airport or City:

Astronomy

Aug. 22, 2019 Rise Set
Actual Time 6:44 AM MDT 8:14 PM MDT
Civil Twilight 6:16 AM MDT 8:42 PM MDT
Nautical Twilight 5:41 AM MDT 9:16 PM MDT
Astronomical Twilight 5:05 AM MDT 9:53 PM MDT
Moon No Moon Rise 1:24 PM MDT (8/22)
Length of Visible Light 14h 26m
Length of Day
13h 29m
Waning Gibbous, 59% of the Moon is Illuminated
Aug 22
Waning Gibbous
Aug 23
Last Quarter
Aug 30
New
Sep 5
First Quarter
Sep 13
Full

Hourly Weather History & Observations

Time (MDT) Temp. Heat Index Dew Point Humidity Pressure Visibility Wind Dir Wind Speed Gust Speed Precip Events Conditions
12:56 AM 64.9 °F - 43.0 °F 45% 29.73 in 10.0 mi SSE 6.9 mph - N/A   Clear
1:56 AM 68.0 °F - 37.0 °F 32% 29.70 in 10.0 mi SE 10.4 mph - N/A   Clear
2:56 AM 63.0 °F - 37.9 °F 40% 29.71 in 10.0 mi SSW 3.5 mph - N/A   Clear
3:56 AM 60.1 °F - 42.1 °F 51% 29.71 in 10.0 mi Calm Calm - N/A   Clear
4:56 AM 61.0 °F - 37.9 °F 42% 29.71 in 10.0 mi East 8.1 mph - N/A   Partly Cloudy
5:56 AM 55.9 °F - 39.9 °F 55% 29.71 in 10.0 mi East 4.6 mph - N/A   Partly Cloudy
6:56 AM 60.1 °F - 39.9 °F 47% 29.72 in 10.0 mi ESE 5.8 mph - N/A   Clear
7:56 AM 66.0 °F - 39.0 °F 37% 29.73 in 10.0 mi West 3.5 mph - N/A   Clear
8:56 AM 69.1 °F - 39.0 °F 33% 29.76 in 10.0 mi SE 8.1 mph - N/A   Clear
9:56 AM 77.0 °F - 37.9 °F 24% 29.73 in 10.0 mi SE 6.9 mph - N/A   Mostly Cloudy
10:56 AM 82.0 °F - 39.9 °F 22% 29.73 in 10.0 mi SE 9.2 mph - N/A   Mostly Cloudy
11:56 AM 88.0 °F - 37.0 °F 16% 29.70 in 10.0 mi SSE 8.1 mph - N/A   Partly Cloudy
12:56 PM 89.1 °F - 28.0 °F 11% 29.70 in 10.0 mi WSW 5.8 mph - N/A   Clear
1:56 PM 91.9 °F - 32.0 °F 12% 29.67 in 10.0 mi East 8.1 mph - N/A   Mostly Cloudy
2:56 PM 91.9 °F - 37.0 °F 15% 29.67 in 10.0 mi South 9.2 mph - N/A   Mostly Cloudy
3:56 PM 91.9 °F - 37.0 °F 15% 29.65 in 10.0 mi South 19.6 mph 25.3 mph N/A   Mostly Cloudy
4:56 PM 91.9 °F - 37.0 °F 15% 29.63 in 10.0 mi Variable 5.8 mph - N/A   Mostly Cloudy
5:11 PM 87.8 °F - 48.2 °F 25% 29.81 in 10.0 mi WNW 16.1 mph - N/A   Mostly Cloudy
5:25 PM 89.6 °F - 39.2 °F 17% 29.81 in 10.0 mi NNW 12.7 mph - N/A   Mostly Cloudy
5:56 PM 86.0 °F 84.5 °F 55.0 °F 35% 29.66 in 10.0 mi NW 12.7 mph - N/A   Mostly Cloudy
6:56 PM 82.9 °F 81.8 °F 53.1 °F 36% 29.66 in 10.0 mi NNW 13.8 mph - N/A   Mostly Cloudy
7:56 PM 79.0 °F - 55.9 °F 45% 29.67 in 10.0 mi NW 12.7 mph - N/A   Mostly Cloudy
8:56 PM 77.0 °F - 54.0 °F 45% 29.69 in 10.0 mi NW 10.4 mph - N/A   Mostly Cloudy
9:56 PM 77.0 °F - 53.1 °F 43% 29.70 in 10.0 mi NNW 5.8 mph - N/A   Clear
10:56 PM 73.0 °F - 50.0 °F 44% 29.70 in 10.0 mi East 5.8 mph - N/A   Clear
11:56 PM 68.0 °F - 53.1 °F 59% 29.72 in 10.0 mi South 3.5 mph - N/A   Clear